SCP
0 0 0 0 0 0 0 0 0 0 0 0 0 0 0 0 0 0 0 0 0 0 0 0 0 0 0 0 0 0 0 0 0 0 0 0 0 0 0 0 0 0 0
0 0 0 0 0 0 0 0 0 0 0 0 0 0 0 0 0 0 0 0 0 0 0 0 0 0 0 0 0 0 0 0 0 0 0 0 0 0 0 0 0 0 0
0 0 0 0 0 0 0 0 0 0 0 0 0 0 0 0 0 0 0 0 0 0 0 0 0 0 0 0 0 0 0 0 0 0 0 0 0 0 0 0 0 0 0
0 0 0 0 0 0 0 0 0 0 0 0 0 0 0 0 0 0 0 0 0 0 0 0 0 0 0 0 0 0 0 0 0 0 0 0 0 0 0 0 0 0 0
0 0 0 0 0 0 0 0 0 0 0 0 0 0 0 0 0 0 0 0 0 0 0 0 0 0 0 0 0 0 0 0 0 0 0 0 0 0 0 0 0 0 0
0 0 0 0 0 0 0 0 0 0 0 0 0 0 0 0 0 0 0 0 0 0 0 0 0 0 0 0 0 0 0 0 0 0 0 0 0 0 0 0 0 0 0
0 0 0 0 0 0 0 0 0 0 0 0 0 0 0 0 0 0 0 0 0 0 0 0 0 0 0 0 0 0 0 0 0 0 0 0 0 0 0 0 0 0 0
0 0 0 0 0 0 0 0 0 0 0 0 0 0 0 0 0 0 0 0 0 0 0 0 0 0 0 0 0 0 0 0 0 0 0 0 0 0 0 0 0 0 0
0 0 0 0 0 0 0 0 0 0 0 0 0 0 0 0 0 0 0 0 0 0 0 0 0 0 0 0 0 0 0 0 0 0 0 0 0 0 0 0 0 0 0
0 0 0 0 0 0 0 0 0 0 0 0 0 0 0 0 0 0 0 0 0 0 0 0 0 0 0 0 0 0 0 0 0 0 0 0 0 0 0 0 0 0 0
0 0 0 0 0 0 0 0 0 0 0 0 0 0 0 0 0 0 0 0 0 0 0 0 0 0 0 0 0 0 0 0 0 0 0 0 0 0 0 0 0 0 0
0 0 0 0 0 0 0 0 0 0 0 0 0 0 0 0 0 0 0 0 0 0 0 0 0 0 0 0 0 0 0 0 0 0 0 0 0 0 0 0 0 0 0
0 0 0 0 0 0 0 0 0 0 0 0 0 0 0 0 0 0 0 0 0 0 0 0 0 0 0 0 0 0 0 0 0 0 0 0 0 0 0 0 0 0 0
0 0 0 0 0 0 0 0 0 0 0 0 0 0 0 0 0 0 0 0 0 0 0 0 0 0 0 0 0 0 0 0 0 0 0 0 0 0 0 0 0 0 0
0 0 0 0 0 0 0 0 0 0 0 0 0 0 0 0 0 0 0 0 0 0 0 0 0 0 0 0 0 0 0 0 0 0 0 0 0 0 0 0 0 0 0
0 0 0 0 0 0 0 0 0 0 0 0 0 0 0 0 0 0 0 0 0 0 0 0 0 0 0 0 0 0 0 0 0 0 0 0 0 0 0 0 0 0 0
0 0 0 0 0 0 0 0 0 0 0 0 0 0 0 0 0 0 0 0 0 0 0 0 0 0 0 0 0 0 0 0 0 0 0 0 0 0 0 0 0 0 0
0 0 0 0 0 0 0 0 0 0 0 0 0 0 0 0 0 0 0 0 0 0 0 0 0 0 0 0 0 0 0 0 0 0 0 0 0 0 0 0 0 0 0
0 0 0 0 0 0 0 0 0 0 0 0 0 0 0 0 0 0 0 0 0 0 0 0 0 0 0 0 0 0 0 0 0 0 0 0 0 0 0 0 0 0 0
0 0 0 0 0 0 0 0 0 0 0 0 0 0 0 0 0 0 0 0 0 0 0 0 0 0 0 0 0 0 0 0 0 0 0 0 0 0 0 0 0 0 0
0 0 0 0 0 0 0 0 0 0 0 0 0 0 0 0 0 0 0 0 0 0 0 0 0 0 0 0 0 0 0 0 0 0 0 0 0 0 0 0 0 0 0
0 0 0 0 0 0 0 0 0 0 0 0 0 0 0 0 0 0 0 0 0 0 0 0 0 0 0 0 0 0 0 0 0 0 0 0 0 0 0 0 0 0 0
-0 -0 -0 0 0 0 0 0 0 0 0 0 0 0 0 0 0 0 0 0 0 0 0 0 0 0 0 0 0 0 0 0 0 0 0 0 0 0 0 0 0 0 0
0 -0 -0 -0 -0 0 0 0 0 0 0 0 0 0 0 0 0 0 0 0 0 0 0 0 0 0 0 0 0 0 0 0 0 0 0 0 0 0 0 0 0 0 0
-0 -0 -0 -0 -0 -0 0 0 0 0 0 0 0 0 0 0 0 0 0 0 0 0 0 0 0 0 0 0 0 0 0 0 0 0 0 0 0 0 0 0 0 0 0
-0 -0 -0 -0 -0 -0 -0 0 0 0 0 0 0 0 0 0 0 0 0 0 0 0 0 0 0 0 0 0 0 0 0 0 0 0 0 0 0 0 0 0 0 0 0
Wind_Speed_500mb
81 92 89 85 81 74 73 77 74 73 71 67 63 57 58 59 55 51 46 41 34 29 26 22 20 21 19 17 17 18 19 18 18 15 14 13 10 10 2 2 6 13 16
74 84 97 89 84 86 77 77 77 78 78 73 67 63 62 63 57 55 51 44 38 33 29 26 24 24 24 25 25 23 24 24 23 16 15 11 11 14 9 8 7 11 15
82 80 99 108 87 94 87 83 81 81 81 77 71 68 63 62 66 63 56 49 43 38 32 28 27 26 26 26 26 26 25 24 27 25 15 9 9 13 15 12 10 12 14
79 81 90 103 107 99 91 84 84 84 85 84 80 78 78 79 76 64 54 52 48 43 38 36 33 30 30 30 28 28 27 28 28 32 33 22 12 12 9 15 14 12 14
87 87 91 99 111 99 99 90 87 87 87 88 86 83 81 77 70 63 57 57 54 49 45 38 37 36 32 32 31 31 31 31 30 33 31 31 25 21 19 14 12 12 14
90 90 88 95 102 103 101 96 92 91 93 91 92 90 88 82 75 68 64 63 60 55 50 47 45 39 35 36 33 33 35 33 32 33 32 28 27 24 22 19 15 12 12
94 95 93 96 104 111 109 104 99 99 97 93 96 93 93 86 76 71 67 66 65 61 57 52 50 44 38 39 37 36 37 35 34 33 31 28 26 22 20 17 13 9 11
96 100 99 97 104 110 114 112 108 105 101 96 98 94 94 88 79 75 71 68 64 58 54 52 51 45 43 41 39 39 39 37 35 34 31 28 26 22 18 15 11 8 8
96 95 102 105 102 106 110 110 111 108 103 99 98 97 94 89 80 75 72 69 62 58 55 52 54 49 47 42 41 41 41 38 36 34 32 29 25 21 17 15 12 10 7
95 101 103 109 105 103 102 105 106 107 106 101 99 100 95 86 78 72 70 73 67 59 63 59 57 51 50 45 45 45 44 40 38 36 33 29 26 22 19 16 14 14 12
78 88 90 97 104 102 102 101 104 107 108 107 103 101 96 87 78 76 73 67 62 62 68 65 60 52 51 47 49 47 45 42 39 37 34 32 29 25 21 21 20 17 15
52 75 84 90 95 102 101 100 101 107 110 103 102 103 93 87 82 79 78 72 68 64 72 65 61 55 54 49 50 50 47 44 41 37 37 35 30 25 27 26 22 22 21
12 27 56 73 81 89 96 93 96 96 98 98 96 96 92 91 86 82 77 72 69 64 65 71 60 57 54 52 51 49 46 43 40 38 37 33 30 33 30 27 27 28 28
17 8 8 29 49 62 72 77 77 79 81 86 86 88 91 91 86 82 76 70 65 66 69 64 59 55 52 52 52 51 48 44 42 40 36 34 34 31 33 30 31 34 35
18 14 6 12 14 26 40 50 56 61 67 74 80 84 86 84 79 77 69 64 58 66 67 58 55 53 53 55 54 52 47 45 44 40 36 38 35 35 33 34 35 38 39
31 24 15 12 11 23 33 41 50 59 65 72 77 77 76 75 74 72 71 63 65 67 64 53 53 55 58 55 53 49 47 46 44 37 38 39 40 35 33 36 41 43 44
29 26 21 19 18 17 19 26 35 43 51 56 58 60 65 66 67 64 58 62 69 61 56 55 56 56 56 54 53 51 48 46 40 39 40 40 39 34 35 38 43 47 48
25 24 24 22 17 16 21 22 24 31 40 47 51 54 58 58 56 59 60 61 59 54 56 54 55 56 55 54 52 49 47 43 41 43 41 43 40 37 37 42 45 48 50
21 21 25 28 29 28 22 25 30 33 38 41 47 49 50 53 56 57 55 53 54 56 56 54 56 56 55 53 53 50 47 44 43 42 43 43 42 35 39 46 48 48 51
20 22 22 24 30 34 35 36 39 39 43 41 42 47 50 52 53 52 53 52 54 53 52 53 55 54 51 51 49 47 44 44 44 41 44 41 37 40 44 48 49 53 47
35 29 23 23 25 33 40 44 44 50 48 40 44 50 51 54 54 52 52 51 52 50 51 55 53 51 50 47 45 45 46 43 41 42 40 39 44 47 50 52 50 50 49
38 37 36 31 23 25 37 42 47 40 44 43 47 49 51 52 56 55 51 52 50 52 54 53 53 50 45 46 47 46 44 43 46 42 40 46 50 48 48 49 49 48 49
40 42 41 36 29 26 30 37 38 40 42 50 50 48 52 54 56 57 56 55 54 52 52 53 51 46 45 48 48 48 48 47 44 42 45 47 43 44 45 44 45 46 47
34 39 43 42 37 32 30 34 38 43 51 52 49 46 54 51 54 55 53 53 52 53 52 48 46 43 47 50 53 50 47 46 47 43 41 41 39 40 43 43 39 38 35
33 36 40 42 42 40 34 32 35 39 46 49 46 46 52 57 56 56 52 46 44 42 40 39 40 43 46 47 47 48 47 45 39 38 38 38 40 39 39 37 35 32 27
31 35 39 41 42 40 38 35 32 32 35 42 46 49 55 58 58 57 56 54 50 46 45 44 42 41 44 48 48 45 39 36 37 36 34 33 31 30 30 28 22 18 18
Wind_Direction_500mb
210 206 204 207 211 210 207 208 207 206 205 202 201 202 204 205 209 212 215 216 221 225 228 227 225 224 221 222 213 206 212 200 189 189 177 180 184 199 267 292 344 355 353
210 208 204 203 209 209 212 211 211 208 207 207 207 208 207 208 214 216 214 215 220 223 225 225 223 223 223 219 221 218 216 210 201 202 192 199 216 226 234 253 307 329 339
210 206 204 205 208 210 214 213 213 212 210 210 210 211 209 213 217 221 215 216 219 223 226 228 230 230 228 230 227 225 224 228 215 212 218 197 218 216 245 250 282 298 320
216 211 204 206 210 213 215 217 216 214 213 214 213 215 212 213 221 223 221 218 221 224 228 230 230 230 232 232 232 229 226 228 231 224 222 230 240 220 233 249 261 280 306
216 213 211 210 211 213 215 217 218 217 217 217 219 220 220 223 227 226 226 224 225 227 232 237 237 231 230 232 234 234 233 235 237 234 230 230 240 246 251 265 265 278 302
216 218 220 214 211 214 217 218 218 220 220 219 221 223 225 227 227 227 228 228 229 229 233 234 234 239 231 235 234 233 235 238 236 234 230 233 235 240 239 249 258 269 291
216 217 215 210 214 215 217 218 220 221 221 221 224 225 229 230 231 231 231 230 229 228 231 232 234 239 230 232 231 232 235 236 233 229 228 229 233 240 239 241 245 254 288
216 217 217 219 217 217 217 219 221 221 222 222 226 227 230 232 231 234 235 234 235 235 236 238 238 234 233 229 231 230 231 233 228 225 226 227 230 234 241 245 241 245 276
214 218 221 223 221 219 219 219 221 222 223 224 226 229 230 231 231 233 237 237 237 234 233 240 237 232 235 227 231 230 231 230 226 222 224 226 229 236 241 245 250 263 262
209 216 223 224 223 223 223 222 224 225 226 227 230 233 233 231 233 235 241 243 237 232 234 237 230 228 231 226 229 227 227 226 225 223 225 228 231 236 241 248 256 259 278
221 220 220 223 225 225 224 224 225 227 228 230 230 234 235 235 233 236 237 242 243 237 237 236 233 230 230 225 228 226 226 227 225 224 226 227 231 237 245 250 252 265 279
219 226 229 227 225 226 226 225 225 226 230 232 232 236 236 237 236 237 235 240 241 240 239 236 230 227 228 226 226 227 226 226 227 226 229 230 233 242 247 251 259 267 279
103 210 221 223 224 226 227 227 229 230 232 234 234 237 238 238 237 237 239 240 238 240 235 239 233 225 225 226 224 225 226 228 227 229 232 236 240 245 251 257 265 273 276
44 40 193 217 222 225 228 230 231 233 233 232 233 234 236 236 239 236 239 240 238 239 233 230 226 224 225 226 223 223 224 226 228 232 234 240 245 249 257 264 270 272 276
30 37 341 255 211 211 212 216 221 225 227 228 229 232 232 232 233 235 238 240 238 236 230 226 222 224 225 225 222 222 225 229 231 233 237 242 248 252 260 269 271 272 276
34 23 1 325 284 260 247 237 231 228 228 231 233 235 236 235 234 236 239 231 229 228 225 220 224 225 224 222 221 222 227 231 234 236 240 245 251 256 265 268 271 273 277
15 9 4 348 330 303 274 256 248 242 237 234 232 231 232 232 234 236 220 218 222 221 221 222 224 224 224 222 220 222 226 232 235 238 243 250 258 262 268 271 274 275 277
350 346 340 336 329 299 284 272 257 248 242 236 233 232 232 233 226 220 221 222 221 221 226 225 224 223 222 219 220 222 228 233 235 240 245 251 258 262 267 270 273 279 280
330 316 306 299 298 300 281 268 261 253 245 242 238 231 228 223 219 219 219 220 223 225 226 225 224 224 220 219 219 220 226 231 237 242 248 253 259 268 269 271 274 276 278
343 327 316 297 285 281 279 267 260 258 255 249 240 233 229 225 225 223 223 222 224 226 226 225 225 222 221 222 220 221 226 234 239 244 250 260 268 269 272 273 275 276 283
347 342 332 321 300 276 273 269 264 258 259 255 248 243 236 236 232 227 228 225 223 222 224 225 223 222 220 222 220 223 229 237 243 248 255 266 268 269 272 275 277 281 276
356 348 342 336 314 285 269 271 268 272 267 257 252 245 239 236 232 229 224 222 221 221 221 220 220 221 220 220 220 225 231 237 243 251 258 264 269 272 276 278 279 277 274
357 352 345 339 328 301 288 274 271 252 253 253 249 242 235 231 229 226 222 219 218 219 220 220 220 221 221 220 221 227 233 240 249 257 261 263 268 271 274 276 277 276 276
355 352 347 342 334 321 302 283 269 259 245 245 247 234 229 225 226 225 222 222 220 218 217 217 220 219 220 221 225 230 238 246 253 257 255 258 264 270 272 274 275 276 280
353 356 353 346 341 331 318 301 283 267 254 247 240 229 228 220 218 220 221 218 218 220 222 221 222 223 225 227 231 234 241 248 249 252 258 265 268 267 271 274 277 283 296
346 357 359 359 351 342 330 315 295 273 258 248 238 229 222 216 213 213 209 205 204 209 211 209 215 223 226 227 231 237 243 245 252 257 260 261 261 266 271 279 290 296 295
Wind_Speed_850mb
81 92 89 85 81 74 73 77 74 73 71 67 63 57 58 59 55 51 46 41 34 29 26 22 20 21 19 17 17 18 19 18 18 15 14 13 10 10 2 2 6 13 16
74 84 97 89 84 86 77 77 77 78 78 73 67 63 62 63 57 55 51 44 38 33 29 26 24 24 24 25 25 23 24 24 23 16 15 11 11 14 9 8 7 11 15
82 80 99 108 87 94 87 83 81 81 81 77 71 68 63 62 66 63 56 49 43 38 32 28 27 26 26 26 26 26 25 24 27 25 15 9 9 13 15 12 10 12 14
79 81 90 103 107 99 91 84 84 84 85 84 80 78 78 79 76 64 54 52 48 43 38 36 33 30 30 30 28 28 27 28 28 32 33 22 12 12 9 15 14 12 14
87 87 91 99 111 99 99 90 87 87 87 88 86 83 81 77 70 63 57 57 54 49 45 38 37 36 32 32 31 31 31 31 30 33 31 31 25 21 19 14 12 12 14
90 90 88 95 102 103 101 96 92 91 93 91 92 90 88 82 75 68 64 63 60 55 50 47 45 39 35 36 33 33 35 33 32 33 32 28 27 24 22 19 15 12 12
94 95 93 96 104 111 109 104 99 99 97 93 96 93 93 86 76 71 67 66 65 61 57 52 50 44 38 39 37 36 37 35 34 33 31 28 26 22 20 17 13 9 11
96 100 99 97 104 110 114 112 108 105 101 96 98 94 94 88 79 75 71 68 64 58 54 52 51 45 43 41 39 39 39 37 35 34 31 28 26 22 18 15 11 8 8
96 95 102 105 102 106 110 110 111 108 103 99 98 97 94 89 80 75 72 69 62 58 55 52 54 49 47 42 41 41 41 38 36 34 32 29 25 21 17 15 12 10 7
95 101 103 109 105 103 102 105 106 107 106 101 99 100 95 86 78 72 70 73 67 59 63 59 57 51 50 45 45 45 44 40 38 36 33 29 26 22 19 16 14 14 12
78 88 90 97 104 102 102 101 104 107 108 107 103 101 96 87 78 76 73 67 62 62 68 65 60 52 51 47 49 47 45 42 39 37 34 32 29 25 21 21 20 17 15
52 75 84 90 95 102 101 100 101 107 110 103 102 103 93 87 82 79 78 72 68 64 72 65 61 55 54 49 50 50 47 44 41 37 37 35 30 25 27 26 22 22 21
12 27 56 73 81 89 96 93 96 96 98 98 96 96 92 91 86 82 77 72 69 64 65 71 60 57 54 52 51 49 46 43 40 38 37 33 30 33 30 27 27 28 28
17 8 8 29 49 62 72 77 77 79 81 86 86 88 91 91 86 82 76 70 65 66 69 64 59 55 52 52 52 51 48 44 42 40 36 34 34 31 33 30 31 34 35
18 14 6 12 14 26 40 50 56 61 67 74 80 84 86 84 79 77 69 64 58 66 67 58 55 53 53 55 54 52 47 45 44 40 36 38 35 35 33 34 35 38 39
31 24 15 12 11 23 33 41 50 59 65 72 77 77 76 75 74 72 71 63 65 67 64 53 53 55 58 55 53 49 47 46 44 37 38 39 40 35 33 36 41 43 44
29 26 21 19 18 17 19 26 35 43 51 56 58 60 65 66 67 64 58 62 69 61 56 55 56 56 56 54 53 51 48 46 40 39 40 40 39 34 35 38 43 47 48
25 24 24 22 17 16 21 22 24 31 40 47 51 54 58 58 56 59 60 61 59 54 56 54 55 56 55 54 52 49 47 43 41 43 41 43 40 37 37 42 45 48 50
21 21 25 28 29 28 22 25 30 33 38 41 47 49 50 53 56 57 55 53 54 56 56 54 56 56 55 53 53 50 47 44 43 42 43 43 42 35 39 46 48 48 51
20 22 22 24 30 34 35 36 39 39 43 41 42 47 50 52 53 52 53 52 54 53 52 53 55 54 51 51 49 47 44 44 44 41 44 41 37 40 44 48 49 53 47
35 29 23 23 25 33 40 44 44 50 48 40 44 50 51 54 54 52 52 51 52 50 51 55 53 51 50 47 45 45 46 43 41 42 40 39 44 47 50 52 50 50 49
38 37 36 31 23 25 37 42 47 40 44 43 47 49 51 52 56 55 51 52 50 52 54 53 53 50 45 46 47 46 44 43 46 42 40 46 50 48 48 49 49 48 49
40 42 41 36 29 26 30 37 38 40 42 50 50 48 52 54 56 57 56 55 54 52 52 53 51 46 45 48 48 48 48 47 44 42 45 47 43 44 45 44 45 46 47
34 39 43 42 37 32 30 34 38 43 51 52 49 46 54 51 54 55 53 53 52 53 52 48 46 43 47 50 53 50 47 46 47 43 41 41 39 40 43 43 39 38 35
33 36 40 42 42 40 34 32 35 39 46 49 46 46 52 57 56 56 52 46 44 42 40 39 40 43 46 47 47 48 47 45 39 38 38 38 40 39 39 37 35 32 27
31 35 39 41 42 40 38 35 32 32 35 42 46 49 55 58 58 57 56 54 50 46 45 44 42 41 44 48 48 45 39 36 37 36 34 33 31 30 30 28 22 18 18
Wind_Direction_850mb
210 206 204 207 211 210 207 208 207 206 205 202 201 202 204 205 209 212 215 216 221 225 228 227 225 224 221 222 213 206 212 200 189 189 177 180 184 199 267 292 344 355 353
210 208 204 203 209 209 212 211 211 208 207 207 207 208 207 208 214 216 214 215 220 223 225 225 223 223 223 219 221 218 216 210 201 202 192 199 216 226 234 253 307 329 339
210 206 204 205 208 210 214 213 213 212 210 210 210 211 209 213 217 221 215 216 219 223 226 228 230 230 228 230 227 225 224 228 215 212 218 197 218 216 245 250 282 298 320
216 211 204 206 210 213 215 217 216 214 213 214 213 215 212 213 221 223 221 218 221 224 228 230 230 230 232 232 232 229 226 228 231 224 222 230 240 220 233 249 261 280 306
216 213 211 210 211 213 215 217 218 217 217 217 219 220 220 223 227 226 226 224 225 227 232 237 237 231 230 232 234 234 233 235 237 234 230 230 240 246 251 265 265 278 302
216 218 220 214 211 214 217 218 218 220 220 219 221 223 225 227 227 227 228 228 229 229 233 234 234 239 231 235 234 233 235 238 236 234 230 233 235 240 239 249 258 269 291
216 217 215 210 214 215 217 218 220 221 221 221 224 225 229 230 231 231 231 230 229 228 231 232 234 239 230 232 231 232 235 236 233 229 228 229 233 240 239 241 245 254 288
216 217 217 219 217 217 217 219 221 221 222 222 226 227 230 232 231 234 235 234 235 235 236 238 238 234 233 229 231 230 231 233 228 225 226 227 230 234 241 245 241 245 276
214 218 221 223 221 219 219 219 221 222 223 224 226 229 230 231 231 233 237 237 237 234 233 240 237 232 235 227 231 230 231 230 226 222 224 226 229 236 241 245 250 263 262
209 216 223 224 223 223 223 222 224 225 226 227 230 233 233 231 233 235 241 243 237 232 234 237 230 228 231 226 229 227 227 226 225 223 225 228 231 236 241 248 256 259 278
221 220 220 223 225 225 224 224 225 227 228 230 230 234 235 235 233 236 237 242 243 237 237 236 233 230 230 225 228 226 226 227 225 224 226 227 231 237 245 250 252 265 279
219 226 229 227 225 226 226 225 225 226 230 232 232 236 236 237 236 237 235 240 241 240 239 236 230 227 228 226 226 227 226 226 227 226 229 230 233 242 247 251 259 267 279
103 210 221 223 224 226 227 227 229 230 232 234 234 237 238 238 237 237 239 240 238 240 235 239 233 225 225 226 224 225 226 228 227 229 232 236 240 245 251 257 265 273 276
44 40 193 217 222 225 228 230 231 233 233 232 233 234 236 236 239 236 239 240 238 239 233 230 226 224 225 226 223 223 224 226 228 232 234 240 245 249 257 264 270 272 276
30 37 341 255 211 211 212 216 221 225 227 228 229 232 232 232 233 235 238 240 238 236 230 226 222 224 225 225 222 222 225 229 231 233 237 242 248 252 260 269 271 272 276
34 23 1 325 284 260 247 237 231 228 228 231 233 235 236 235 234 236 239 231 229 228 225 220 224 225 224 222 221 222 227 231 234 236 240 245 251 256 265 268 271 273 277
15 9 4 348 330 303 274 256 248 242 237 234 232 231 232 232 234 236 220 218 222 221 221 222 224 224 224 222 220 222 226 232 235 238 243 250 258 262 268 271 274 275 277
350 346 340 336 329 299 284 272 257 248 242 236 233 232 232 233 226 220 221 222 221 221 226 225 224 223 222 219 220 222 228 233 235 240 245 251 258 262 267 270 273 279 280
330 316 306 299 298 300 281 268 261 253 245 242 238 231 228 223 219 219 219 220 223 225 226 225 224 224 220 219 219 220 226 231 237 242 248 253 259 268 269 271 274 276 278
343 327 316 297 285 281 279 267 260 258 255 249 240 233 229 225 225 223 223 222 224 226 226 225 225 222 221 222 220 221 226 234 239 244 250 260 268 269 272 273 275 276 283
347 342 332 321 300 276 273 269 264 258 259 255 248 243 236 236 232 227 228 225 223 222 224 225 223 222 220 222 220 223 229 237 243 248 255 266 268 269 272 275 277 281 276
356 348 342 336 314 285 269 271 268 272 267 257 252 245 239 236 232 229 224 222 221 221 221 220 220 221 220 220 220 225 231 237 243 251 258 264 269 272 276 278 279 277 274
357 352 345 339 328 301 288 274 271 252 253 253 249 242 235 231 229 226 222 219 218 219 220 220 220 221 221 220 221 227 233 240 249 257 261 263 268 271 274 276 277 276 276
355 352 347 342 334 321 302 283 269 259 245 245 247 234 229 225 226 225 222 222 220 218 217 217 220 219 220 221 225 230 238 246 253 257 255 258 264 270 272 274 275 276 280
353 356 353 346 341 331 318 301 283 267 254 247 240 229 228 220 218 220 221 218 218 220 222 221 222 223 225 227 231 234 241 248 249 252 258 265 268 267 271 274 277 283 296
346 357 359 359 351 342 330 315 295 273 258 248 238 229 222 216 213 213 209 205 204 209 211 209 215 223 226 227 231 237 243 245 252 257 260 261 261 266 271 279 290 296 295